SL-8 DEB

Satellite information

Favourite Embed

Satellite Type and Status

DEBRISIN ORBIT

Key statistics

Satellite SL-8 DEB at a glance.

Uptime

21961

Days in orbit

Revolutions

≈ 12.3

Per day

Orbit

LEO

Low Earth Orbit

Inclination

56.2

Latest

Satellite identification and parameters

Extended collection of information and parameters for SL-8 DEB.

Object identification

Identified? True

Debris? True

Object name: SL-8 DEB

International designator: 1965-073K

Object number (NORAD): 1618

Object ID (CCSDS): 1618

Country: COMMONWEALTH OF INDEPENDENT STATES (CIS)

Current information (Y/N): Y

RCS size: MEDIUM

Orbital parameters

Period: 117.04 minutes

Inclination: 56.1796 deg

SMA: 7925.941 km

Apoapsis: 1725.044 km

Periapsis: 1370.569 km

RAAN: 19.9264 deg

Eccentricy: 0.02236168

Argument of periapsis: 329.3344 deg

Mean anomaly: 102.0689 deg

Mean motion: 12.30343789 rev/day

Mean motion (dot): 0.00000142 rev/day2

B* drag term: 0.0018066666 1/REarth

Two-line elements (TLE)

Creation date: Nov. 1, 2025, 7:40 p.m.

Reference frame: TEME

Reference center: EARTH

Epoch: Nov. 1, 2025, 8:28 a.m. UTC

TLE line 0: 0 SL-8 DEB

TLE line 1: 1 01618U 65073K 25305.35284352 .00000142 00000-0 18067-2 0 9995

TLE line 2: 2 01618 56.1796 19.9264 0223617 329.3344 102.0689 12.30343789695075

Live tracking on map

Real-time ground track for satellite SL-8 DEB.

In-orbit conjunctions

A list of the most updated potential collisions computed for object SL-8 DEB.

Target Orbit TCA Probability of collision Miss distance Type
THORAD AGENA D DEB SSO 2024-09-29 00:36:59 0.001145234 242.0 (m) DEBRIS

Associated space launch

The Strela-1 satellites were prototype store-dump communications satellites for tactical communication.

SL-8 DEB was lifted into orbit during the mission ‘Kosmos 65S3 | Strela-1 25 to 29’, on board a Kosmos 65S3 space rocket.

The launch took place on Sept. 18, 1965, 7:59 a.m. from 41/15.

For more information about the launch, click the button.

Launch to space Kosmos 65S3 | Strela-1 25 to 29
Kosmos 65S3 | Strela-1 25 to 29

Agency: N/A

Status: Launch Successful

Launch date: Sept. 18, 1965, 7:59 a.m. UTC

Rocket: Kosmos 65S3

Launch pad: 41/15

Location: Baikonur Cosmodrome, Republic of Kazakhstan

...

Latest news about this satellite

There are no fresh news available about this satellite. Check back as we update our databases every day.


Newsletter sign-up

Weekly statistics, charts and insights to help you stay on top of the space industry.